Location: Cahas Mountain Overlook
(37.0833°N, 80.1000°W)
Time: 19:15:00
(UTC-05:00)

Vanguard 3 - Pass Details

Date: 14 December 2023
Orbit: 508 x 3239 km, 33.4° (Epoch: 23 February)

Event Time Altitude Azimuth Distance (km) Brightness Sun altitude
Rises 21:46:07 0° 268° (W) 6,997 12.4 -55.2°
Reaches altitude 10° 21:51:13 10° 267° (W) 5,740 11.8 -56.2°
Enters shadow 22:01:18 41° 260° (W) 3,175 10.1 -58.1°
